Regional Weather Roundup
Issued by NWS Upton, NY

Current Version | Previous Version | Text Only | Print | Product List | Glossary On
Versions: 1 2 3 4 5 6 7 8 9 10 11 12 13 14 15 16 17 18 19 20 21 22 23 24 25 26 27
000 ASUS41 KOKX 240009 RWROKX REGIONAL WEATHER ROUNDUP NATIONAL WEATHER SERVICE NEW YORK NY 800 PM EDT SAT SEP 23 2017 NOTE: "FAIR" INDICATES FEW OR NO CLOUDS BELOW 12,000 FEET WITH NO SIGNIFICANT WEATHER AND/OR OBSTRUCTIONS TO VISIBILITY. NYZ071-072-176-178-NJZ106-104-240100- NEW YORK CITY METRO AREA CITY SKY/WX TMP DP RH WIND PRES REMARKS Central Park CLEAR 81 49 32 N3 30.06R Bronx Bot Gard N/A 75 50 41 CALM 30.04R LaGuardia APRT CLEAR 81 52 36 N5 30.02R Kennedy INTL CLEAR 79 52 38 N5 30.03R Breezy Point N/A 81 N/A N/A N5 N/A Newark/Liberty CLEAR 78 52 40 N8 30.03R Teterboro CLEAR 82 51 34 CALM 30.02R $$ NYZ177-179-078>081-240100- LONG ISLAND NEW YORK CITY SKY/WX TMP DP RH WIND PRES REMARKS Jones Beach N/A 79 N/A N/A N2 N/A Matinecock PT N/A 79 N/A N/A SW3 N/A Farmingdale CLEAR 78 54 43 N5 30.02R MacArthur/ISP CLEAR 72 63 73 N5 30.01R Shirley CLEAR 71 67 87 CALM 30.02R Mt Sinai Harb N/A N/A N/A N/A S1 N/A Westhampton CLEAR 65 61 87 CALM 30.04R East Hampton FAIR 67 64 90 CALM 30.02R Montauk N/A 68 66 93 CALM 30.03R $$ NYZ052-065-067-240100- HUDSON VALLEY CITY SKY/WX TMP DP RH WIND PRES REMARKS White Plains CLEAR 71 57 61 NW7 30.04R Larchmont Harb N/A 79 N/A N/A NW2 N/A Croton On Huds N/A 73 N/A N/A MISG N/A Newburgh CLEAR 72 63 73 CALM 30.07R Montgomery CLEAR 67 63 87 CALM 30.05R Poughkeepsie CLEAR 68 58 70 CALM 30.03R Albany CLEAR 71 60 68 CALM 30.05R $$ NJZ001-105-106-008-010-013-015-019>022-104-240100- NEW JERSEY CITY SKY/WX TMP DP RH WIND PRES REMARKS Newark/Liberty CLEAR 78 52 40 N8 30.03R Teterboro CLEAR 82 51 34 CALM 30.02R Caldwell CLEAR 75 61 61 CALM 30.04R Somerville NOT AVBL Linden FAIR 81 49 33 CALM 30.03R Perth Amboy N/A 79 N/A N/A MISG N/A Sussex CLEAR 68 64 87 CALM 30.06R Andover N/A 67 64 90 CALM 30.07R Trenton CLEAR 74 59 59 CALM 30.03R Millville CLEAR 71 67 87 CALM 30.04R Atlantic City CLEAR 74 67 78 S3 30.04R Wrightstown NOT AVBL Toms River CLEAR 69 65 86 CALM 30.04R Belmar CLEAR 73 59 61 CALM 30.04R $$ PAZ047>061-062-071-240100- EASTERN PENNSYLVANIA CITY SKY/WX TMP DP RH WIND PRES REMARKS Philadelphia CLEAR 79 57 46 CALM 30.04R Allentown CLEAR 77 61 57 CALM 30.05R Scranton CLEAR 74 61 63 E7 30.10R $$ CTZ002-004>006-009-010-012-RIZ004-006-007-MAZ004-011-015-240100- SOUTHERN NEW ENGLAND IN CT CITY SKY/WX TMP DP RH WIND PRES REMARKS Bradley INTL PTCLDY 73 57 57 CALM 30.02R Hartford CLEAR 70 60 70 CALM 30.02R Danbury CLEAR 68 58 70 SW3 30.06R Wtrbury/Oxford CLEAR 70 58 65 N6 30.06R Norwalk Harbor N/A 77 N/A N/A N8 N/A Bridgeport CLEAR 79 57 46 NW5 30.02R Meriden CLEAR 69 58 67 CALM 30.02R New Haven CLEAR 69 63 81 CALM 30.02R Chester FAIR 72 63 73 CALM 30.04R Groton CLEAR 67 65 93 CALM 30.02R Wilimantic CLEAR 72 66 81 CALM 30.03R IN RI CITY SKY/WX TMP DP RH WIND PRES REMARKS Providence CLEAR 69 66 90 E5 30.02R Block Island CLEAR 66 64 93 E3 30.03R Westerly CLEAR 70 66 87 CALM 30.02R IN MA CITY SKY/WX TMP DP RH WIND PRES REMARKS Boston FOG 61 61 100 NE3 30.03R VSB 1/4 Worcester CLEAR 70 58 65 CALM 30.06R Westfield CLEAR 68 60 75 CALM 30.03R Provincetown FOG 62 61 96 NE7 30.02S VSB 1/4 Nantucket FOG 63 63 100 N14 29.99R VSB 1/2 $$ ANZ330-335-338-340-345-350-353-355-240100- COASTAL MARINE OBSERVATIONS STATION/POSITION TIME SKY/WX TEMP WIND PRES VSBY WAVE AIR SEA DIR/SP/G HT/PER (UTC) (F) (DEG/KT/KT) (MB) (MI) (FT/S) NY HARB ENTRANCE 2350 75 72 330/ 2/ 2 1015.7 4/12 20 S FIRE ISLAND 2350 70 68 290/ 4/ 4 1016.4 5/14 GREAT SOUTH BAY 2330 77 71 360/ 2/ 4 N/A 23 SSW MONTAUK P 2350 65 64 1016.5 4/14 15 E BARNEGAT LI 2330 70 N/A 5/13 HUDSON CANYON 2250 69 68 50/ 8/ 10 1015.3 6/14 KINGS POINT 2324 79 72 60/ 3/ 5 1017.1 EXECUTION ROCKS 2345 77 320/ 4/ 4 N/A WESTERN LI SOUND NOT AVBL CENTRAL LI SOUND NOT AVBL EASTERN LI SOUND NOT AVBL ROBBINS REEF 2324 85 350/ 6/ 7 1017.1 $$ >>>>>>>>>>>>>>>>>>>>>>>>>>>> KEY <<<<<<<<<<<<<<<<<<<<<<<<<<< > < > SKY/WX - Sky Condition/Present Weather < > TMP - Temperature in Fahrenheit < > DP - Dew Point in Fahrenheit < > RH - Relative Humidity in Percent < > WIND - Direction (from) and Speed in MPH < > PRES - Mean Sea Level Pressure (inches of Hg) < > WCI - Wind Chill Index < > VSB - VISIBILITY IN MILES < > HX - HEAT INDEX < > TC - TEMPERATURE IN CELSIUS < > VRB - VARIABLE WIND DIRECTION < > < >>>>>>>>>>>>>>>>>>>>>>>>>>>> KEY <<<<<<<<<<<<<<<<<<<<<<<<<<<

USA.gov is the U.S. government's official web portal to all federal, state and local government web resources and services.